Current weather by "City, St" or "zip code"  
 

Current Conditions: Glens Falls, Floyd Bennett Memorial Airport, NY

Light Rain


40.0 F

Last Updated on Oct 29 2020, 8:53 pm EDT
Humidity: 89%
Wind Speed: N 11.5 mph
Barometer 29.77 in
Dewpoint: 37.0 F
Visibility: 10.00 mi
Precip: 00.01 in
Heat Index: NA
Wind Chill: 33 F
Current conditions at:

Glens Falls, Floyd Bennett Memorial Airport, NY (KGFL)

Lat: 43.34111 Lon: 73.61056

Local Radar Image active severe weather and emergency alerts image image weather storm and storm spotter reports image weather observation monitoring service image
Local
Radar
Active
Alerts
Storm Reports Obs
Monitoring

Sign-up For Email & Text Message Weather Alert Notification Services



Advertise Here

Observation History for Glens Falls, Floyd Bennett Memorial Airport, NY


Time Wind
(mph)
Vis
(mi)
Weather Precip (in) Temperature (F) Relative
Humidity
Wind
Chill
(F)
Heat
Index
(F)
Pressure
Air Dwpt altimeter
(in)
sea level
(mb)
Rmks
8:53 pm EDT N 11.5 10.00 Light Rain 00.01 40.0 37.0 89% 33 NA 29.77 1008.6
7:53 pm EDT N 10.4 10.00 Light Rain 00.03 40.0 37.0 89% 33 NA 29.77 1008.8
6:53 pm EDT N 10.4 10.00 Light Rain 00.05 42.0 37.9 85% 36 NA 29.78 1009.0
5:53 pm EDT N 5.8 7.00 Light Rain 00.05 43.0 41.0 93% 39 NA 29.78 1009.0
4:53 pm EDT N 6.9 10.00 Light Rain 00.05 44.0 41.0 89% 40 NA 29.78 1008.8
3:53 pm EDT N 4.6 6.00 Light Rain Fog/Mist 00.02 45.0 43.0 93% 43 NA 29.78 1008.9
2:53 pm EDT NW 4.6 5.00 Light Rain Fog/Mist 00.06 44.0 42.1 93% 41 NA 29.80 1009.5
1:53 pm EDT N 0.0 2.50 Light Rain Fog/Mist 00.06 44.0 42.1 93% NA NA 29.83 1010.6
12:53 pm EDT N 0.0 7.00 Light Rain Trace 43.0 41.0 93% NA NA 29.84 1011.0
11:53 am EDT N 0.0 7.00 Overcast -- 43.0 41.0 93% NA NA 29.85 1011.5
10:53 am EDT N 0.0 6.00 Fog/Mist -- 43.0 41.0 93% NA NA 29.87 1012.2
9:53 am EDT N 0.0 4.00 Fog/Mist -- 41.0 39.9 96% NA NA 29.89 1012.9
8:53 am EDT N 0.0 0.75 Fog/Mist -- 40.0 39.0 97% NA NA 29.90 1013.2
7:53 am EDT N 0.0 1.25 Fog/Mist -- 39.0 37.9 96% NA NA 29.91 1013.4
6:53 am EDT S 3.5 0.50 Fog -- 39.0 37.9 96% NA NA 29.92 1013.7
5:53 am EDT N 0.0 0.50 Fog -- 39.0 37.9 96% NA NA 29.93 1014.0
4:53 am EDT N 0.0 0.25 Fog -- 39.0 37.9 96% NA NA 29.91 1013.4
3:53 am EDT N 0.0 0.25 Fog -- 40.0 39.0 97% NA NA 29.93 1014.1
1:53 am EDT N 0.0 1.25 Fog/Mist -- 40.0 39.0 97% NA NA 29.95 1014.6
12:53 am EDT N 0.0 0.25 Fog -- 38.0 37.9 100% NA NA 29.96 1015.1
11:53 pm EDT N 0.0 0.25 Fog -- 36.0 36.0 100% NA NA 29.97 1015.4
10:53 pm EDT N 0.0 0.25 Fog -- 39.0 39.0 100% NA NA 29.97 1015.4
9:53 pm EDT N 0.0 0.25 Fog -- 39.0 39.0 100% NA NA 29.95 1014.7

Regional Weather Observation


Middlebury State Airport, VT (K6B0)

Overcast
38.0 F

Rutland-Southern Vermont Regional Airport, VT (KRUT)

Light Rain
39.0 F

Schenectady Airport, NY (KSCH)

Overcast
41.0 F

Bennington Morse State Airport, VT (KDDH)

Light Rain
40.0 F

Albany International Airport, NY (KALB)

Light Rain
39.0 F

Springfield, Hartness State Springfield Airport, VT (KVSF)

Light Rain
38.0 F